Location: Boda
(47.1872°N, 9.5454°E)
Time: 18:30:45
(UTC+00:00)

COSMOS 2441 - Pass Details

Date: 14 May 2021
Orbit: 708 x 731 km, 98.1° (Epoch: 15 June)

Event Time Altitude Azimuth Distance (km) Brightness Sun altitude
Rises 02:48:14 0° 12° (NNE) 3,167 8.6 -9.0°
Reaches altitude 10° 02:50:32 10° 10° (N) 2,241 7.7 -8.7°
Maximum altitude 02:55:27 75° 286° (WNW) 761 4.4 -8.1°
Drops below altitude 10° 03:00:19 10° 202° (SSW) 2,222 6.4 -7.4°
Enters shadow 03:01:30 - 201° (SSW) 2,701 6.8 -7.3°
